GW5398 Weather Reports


time (UTC)temp
F
wind
direction
speed
knots
gust
knots
rain 1hr
in
rain 24hr
in
rain mn
in
humidity
%
barometer
mb
20260510091445 63 143 2.6 6.1 0.00 0.00 0.00 72 1009.8
20260510090946 63 157 2.6 4.3 0.00 0.00 0.00 75 1009.8
20260510090446 63 269 5.2 7.0 0.00 0.00 0.00 76 1009.8
20260510085946 62 199 2.6 5.2 0.00 0.00 0.00 79 1009.8
20260510085447 62 165 0.0 2.6 0.00 0.00 0.00 79 1009.8
20260510084945 63 124 0.9 5.2 0.00 0.00 0.00 79 1009.8
20260510084445 62 209 1.7 5.2 0.00 0.00 0.00 80 1009.8
20260510083946 62 151 0.0 2.6 0.00 0.00 0.00 80 1009.8
20260510083446 63 177 2.6 2.6 0.00 0.00 0.00 79 1009.8
20260510082946 63 200 1.7 2.6 0.00 0.00 0.00 80 1009.8
20260510082446 62 140 0.0 4.3 0.00 0.00 0.00 82 1010.2
20260510081945 62 220 2.6 4.3 0.00 0.00 0.00 82 1010.2
20260510081445 61 230 2.6 4.3 0.00 0.00 0.00 84 1010.2
20260510080946 61 200 2.6 2.6 0.00 0.00 0.00 83 1010.2
20260510080445 61 148 1.7 2.6 0.00 0.00 0.00 84 1010.2
20260510075945 60 95 1.7 2.6 0.00 0.00 0.00 86 1010.2
20260510075446 60 146 2.6 4.3 0.00 0.00 0.00 84 1010.2
20260510074945 60 123 0.9 2.6 0.00 0.00 0.00 84 1010.2
20260510074445 60 133 0.9 1.7 0.00 0.00 0.00 86 1010.2
20260510073946 59 149 2.6 2.6 0.00 0.00 0.00 85 1010.2
20260510073446 60 134 1.7 2.6 0.00 0.00 0.00 83 1010.2
20260510072946 60 123 0.0 1.7 0.00 0.00 0.00 83 1009.8
20260510072446 61 194 0.9 0.9 0.00 0.00 0.00 82 1009.8
20260510071945 60 145 0.0 0.9 0.00 0.00 0.00 84 1009.8
20260510071445 59 144 0.0 0.0 0.00 0.00 0.00 86 1010.2
20260510070947 59 95 0.9 1.7 0.00 0.00 0.00 87 1009.8
20260510070446 58 112 0.9 0.9 0.00 0.00 0.00 87 1010.2
20260510065945 57 117 1.7 1.7 0.00 0.00 0.00 88 1010.2
20260510065445 57 104 0.9 1.7 0.00 0.00 0.00 88 1010.2
20260510064945 57 108 0.9 0.9 0.00 0.00 0.00 90 1009.8
20260510064445 57 105 0.9 0.9 0.00 0.00 0.00 91 1010.2
20260510063945 55 127 0.0 0.9 0.00 0.00 0.00 93 1010.2
20260510063446 54 85 0.9 2.6 0.00 0.00 0.00 93 1010.2
20260510062946 54 107 1.7 2.6 0.00 0.00 0.00 93 1010.2
20260510062445 54 117 0.0 1.7 0.00 0.00 0.00 95 1010.5
20260510061945 54 105 0.0 0.9 0.00 0.00 0.00 95 1010.2
20260510061446 54 133 0.0 0.0 0.00 0.00 0.00 97 1010.5
20260510060945 53 133 0.0 0.0 0.00 0.00 0.00 98 1010.5
20260510060445 51 128 0.0 0.9 0.00 0.00 0.00 99 1010.8
20260510055945 51 125 0.0 0.0 0.00 0.00 0.00 99 1010.5
20260510055445 51 108 0.9 1.7 0.00 0.00 0.00 99 1010.8
20260510054945 51 122 0.0 0.0 0.00 0.00 0.00 99 1010.5
20260510054446 52 125 0.0 0.0 0.00 0.00 0.00 99 1010.5
20260510053945 51 126 0.0 0.0 0.00 0.00 0.00 99 1010.5
20260510053447 49 126 0.0 0.0 0.00 0.00 0.00 99 1010.8
20260510052945 48 125 0.0 0.0 0.00 0.00 0.00 99 1010.8
20260510052446 48 109 0.0 0.9 0.00 0.00 0.00 99 1011.2
20260510051947 48 125 0.0 0.0 0.00 0.00 0.00 99 1010.8
20260510051445 48 125 0.0 0.0 0.00 0.00 0.00 99 1010.8
20260510050945 48 125 0.0 0.0 0.00 0.00 0.00 99 1010.8
20260510050446 48 125 0.0 0.0 0.00 0.00 0.00 99 1011.2
20260510045945 48 126 0.0 0.0 0.00 0.00 0.00 99 1010.8
20260510045445 48 126 0.0 0.0 0.00 0.00 0.00 99 1010.8
20260510044945 49 126 0.0 0.0 0.00 0.00 0.00 99 1010.8
20260510044446 49 126 0.0 0.0 0.00 0.00 0.00 99 1010.8
20260510043946 49 126 0.0 0.0 0.00 0.00 0.00 99 1010.8
20260510043446 49 126 0.0 0.0 0.00 0.00 0.00 99 1010.5
20260510042947 49 126 0.0 0.0 0.00 0.00 0.00 99 1010.8
20260510042445 49 125 0.0 0.0 0.00 0.00 0.00 99 1010.5
20260510041946 50 126 0.0 0.0 0.00 0.00 0.00 99 1010.8
20260510041446 49 126 0.0 0.0 0.00 0.00 0.00 99 1010.5
20260510040945 49 125 0.0 0.0 0.00 0.00 0.00 99 1010.8
20260510040446 49 125 0.0 0.0 0.00 0.00 0.00 99 1010.5
20260510035946 49 125 0.0 0.0 0.00 0.00 0.00 99 1010.5
20260510035446 50 127 0.0 0.0 0.00 0.00 0.00 99 1010.8
20260510034946 50 127 0.0 0.0 0.00 0.00 0.00 99 1010.8
20260510034449 50 127 0.0 0.0 0.00 0.00 0.00 99 1010.5
20260510033945 51 127 0.0 0.0 0.00 0.00 0.00 99 1010.5
20260510033446 51 126 0.0 0.0 0.00 0.00 0.00 99 1010.5
20260510032946 51 126 0.0 0.0 0.00 0.00 0.00 99 1010.5
20260510032445 51 126 0.0 0.0 0.00 0.00 0.00 99 1010.5
20260510031947 51 126 0.0 0.0 0.00 0.00 0.00 99 1010.8
20260510031445 51 126 0.0 0.0 0.00 0.00 0.00 99 1010.5
20260510030945 51 127 0.0 0.0 0.00 0.00 0.00 99 1010.5
20260510030447 51 127 0.0 0.0 0.00 0.00 0.00 99 1010.8
20260510025946 51 127 0.0 0.0 0.00 0.00 0.00 99 1010.8
20260510025445 51 127 0.0 0.0 0.00 0.00 0.00 99 1010.8
20260510024946 51 126 0.0 0.0 0.00 0.00 0.00 99 1010.8
20260510024445 51 127 0.0 0.0 0.00 0.00 0.00 99 1010.8
20260510023945 51 127 0.0 0.0 0.00 0.00 0.00 99 1010.8
20260510023446 50 126 0.0 0.0 0.00 0.00 0.00 99 1010.8
20260510022946 50 126 0.0 0.0 0.00 0.00 0.00 99 1010.8
20260510022446 50 126 0.0 0.0 0.00 0.00 0.00 99 1010.5
20260510021946 50 126 0.0 0.0 0.00 0.00 0.00 99 1010.8
20260510021446 50 126 0.0 0.0 0.00 0.00 0.00 99 1010.8
20260510020945 50 126 0.0 0.0 0.00 0.00 0.00 99 1010.8
20260510020447 50 127 0.0 0.0 0.00 0.00 0.00 99 1010.8
20260510015946 50 126 0.0 0.0 0.00 0.00 0.00 99 1010.8
20260510015445 50 127 0.0 0.0 0.00 0.00 0.00 99 1011.2
20260510014946 50 127 0.0 0.0 0.00 0.00 0.00 99 1011.2
20260510014445 50 127 0.0 0.0 0.00 0.00 0.00 99 1011.2
20260510013946 50 127 0.0 0.0 0.00 0.00 0.00 99 1011.2
20260510013445 49 127 0.0 0.0 0.00 0.00 0.00 99 1011.2
20260510012945 49 126 0.0 0.0 0.00 0.00 0.00 99 1011.2
20260510012446 49 127 0.0 0.0 0.00 0.00 0.00 99 1011.2
20260510011946 49 126 0.0 0.0 0.00 0.00 0.00 99 1011.2
20260510011446 48 125 0.0 0.0 0.00 0.00 0.00 99 1011.2
20260510010945 48 125 0.0 0.0 0.00 0.00 0.00 99 1011.2
20260510010445 48 125 0.0 0.0 0.00 0.00 0.00 99 1011.5
20260510005946 48 125 0.0 0.0 0.00 0.00 0.00 99 1011.5
20260510005445 48 125 0.0 0.0 0.00 0.00 0.00 99 1011.9
20260510004945 47 125 0.0 0.0 0.00 0.00 0.00 99 1011.9
20260510004446 48 125 0.0 0.0 0.00 0.00 0.00 99 1011.5
20260510003945 47 125 0.0 0.0 0.00 0.00 0.00 99 1011.9
20260510003445 47 124 0.0 0.0 0.00 0.00 0.00 99 1011.9
20260510002946 48 127 0.0 0.0 0.00 0.00 0.00 99 1011.9
20260510002446 48 127 0.0 0.0 0.00 0.00 0.00 99 1011.5
20260510001945 48 127 0.0 0.0 0.00 0.00 0.00 99 1011.5
20260510001446 48 126 0.0 0.0 0.00 0.00 0.00 99 1011.5
20260510000946 48 126 0.0 0.0 0.00 0.00 0.00 99 1011.5
20260510000448 48 126 0.0 0.0 0.00 0.00 0.00 99 1011.9
20260509235946 48 128 0.0 0.0 0.00 0.00 0.21 99 1011.9
20260509235446 48 128 0.0 0.0 0.00 0.00 0.21 99 1011.9
20260509234945 48 128 0.0 0.0 0.00 0.00 0.21 99 1011.9
20260509234445 48 128 0.0 0.0 0.00 0.00 0.21 99 1011.5
20260509233947 48 128 0.0 0.0 0.00 0.00 0.21 99 1011.9
20260509233445 49 128 0.0 0.0 0.00 0.00 0.21 99 1011.5
20260509232949 49 128 0.0 0.0 0.00 0.00 0.21 99 1011.9
20260509232445 49 128 0.0 0.0 0.00 0.00 0.21 99 1011.9
20260509231945 49 128 0.0 0.0 0.00 0.00 0.21 99 1011.9
20260509231445 49 128 0.0 0.0 0.00 0.00 0.21 99 1011.9
20260509230945 49 128 0.0 0.0 0.00 0.00 0.21 99 1011.9
20260509230445 50 128 0.0 0.0 0.00 0.00 0.21 99 1011.9
20260509225946 50 128 0.0 0.0 0.00 0.00 0.21 99 1011.5
20260509225445 50 129 0.0 0.0 0.00 0.00 0.21 99 1011.9
20260509224946 50 128 0.0 0.0 0.00 0.00 0.21 99 1011.9
20260509224446 50 129 0.0 0.0 0.00 0.00 0.21 99 1011.9
20260509223945 50 128 0.0 0.0 0.00 0.00 0.21 99 1011.9
20260509223445 50 123 0.0 0.9 0.00 0.00 0.21 98 1011.9
20260509222946 50 132 0.0 0.9 0.00 0.00 0.21 99 1011.9
20260509222445 50 130 0.0 0.0 0.00 0.00 0.21 98 1011.9
20260509221945 50 130 0.0 0.0 0.00 0.00 0.21 98 1012.2
20260509221446 50 130 0.0 0.0 0.00 0.00 0.21 98 1012.2
20260509220948 50 130 0.0 0.0 0.00 0.00 0.21 98 1012.5
20260509220445 50 130 0.0 0.0 0.00 0.00 0.21 98 1012.2
20260509215946 50 130 0.0 0.0 0.00 0.00 0.21 98 1012.5
20260509215150 51 129 0.0 0.0 0.00 0.00 0.21 98 1012.2
20260509214650 50 129 0.0 0.0 0.00 0.00 0.21 98 1012.2
20260509214150 50 127 0.0 0.0 0.00 0.00 0.21 98 1011.9
20260509213649 50 127 0.0 0.0 0.00 0.00 0.21 98 1011.9
20260509213149 50 127 0.0 0.0 0.00 0.00 0.21 98 1011.9
20260509212651 50 127 0.0 0.0 0.00 0.00 0.21 98 1011.9
20260509212149 50 127 0.0 0.0 0.00 0.00 0.21 98 1011.9
20260509211649 50 127 0.0 0.0 0.00 0.00 0.21 97 1011.9
20260509211149 51 127 0.0 0.0 0.00 0.00 0.21 97 1011.5
20260509210649 51 130 0.0 0.0 0.00 0.00 0.21 97 1011.9
20260509210151 51 130 0.0 0.0 0.00 0.00 0.21 97 1011.9
20260509205652 51 130 0.0 0.0 0.00 0.00 0.21 97 1011.5
20260509205149 52 130 0.0 0.0 0.00 0.00 0.21 97 1011.5
20260509204649 52 130 0.0 0.0 0.00 0.00 0.21 97 1011.2
20260509204151 52 130 0.0 0.0 0.00 0.00 0.21 97 1011.2
20260509203659 52 129 0.0 0.0 0.00 0.00 0.21 97 1011.2
20260509203150 52 128 0.0 0.0 0.00 0.00 0.21 97 1011.2
20260509202649 52 128 0.0 0.0 0.00 0.00 0.21 97 1011.5
20260509202149 52 128 0.0 0.0 0.00 0.00 0.21 97 1011.2
20260509201650 52 130 0.0 0.0 0.00 0.00 0.21 96 1011.2
20260509201149 52 131 0.0 0.0 0.00 0.00 0.21 96 1011.2
20260509200649 52 132 0.0 0.0 0.00 0.00 0.21 96 1011.2
20260509200149 52 133 0.0 0.0 0.00 0.00 0.21 96 1011.2
20260509195650 52 131 0.0 0.0 0.00 0.00 0.21 96 1010.8
20260509195149 52 134 0.0 0.0 0.00 0.00 0.21 96 1010.8
20260509194650 52 135 0.0 0.0 0.00 0.00 0.21 96 1010.8
20260509194149 52 135 0.0 0.0 0.00 0.00 0.21 95 1010.5